QXJ3059 MMQT-MMTM

Flight info

Callsign QXJ3059
Flight time 0h 37m
Altitude 25000
Route QET2B QET DCT ROGDI DCT UDMAN DCT AVSUB DCT ERILI DCT TMN DCT IPTUN DCT TAM
Aircraft E170/M-SDE3GILORVW/S

Departure

Time 2026-04-24 04:34
Airport Querétaro Intercontinental Airport (MMQT)

Arrival

Time 2026-04-24 05:12
Airport General Francisco Javier Mina International Airport (MMTM)
Time Latitude Longitude Altitude Speed Heading
2026-04-24 04:13 20.62188 -100.18700 6284 ft 0 kts
2026-04-24 04:22 20.62184 -100.18701 6288 ft 2 kts
2026-04-24 04:22 20.62169 -100.18704 6289 ft 2 kts
2026-04-24 04:22 20.62154 -100.18707 6291 ft 2 kts
2026-04-24 04:22 20.62139 -100.18710 6290 ft 2 kts
2026-04-24 04:23 20.62124 -100.18712 6288 ft 2 kts
2026-04-24 04:23 20.62109 -100.18715 6286 ft 2 kts 10°
2026-04-24 04:23 20.62096 -100.18712 6284 ft 2 kts 316°
2026-04-24 04:23 20.62091 -100.18698 6284 ft 2 kts 271°
2026-04-24 04:24 20.62088 -100.18682 6284 ft 2 kts 284°
2026-04-24 04:24 20.62086 -100.18673 6284 ft 0 kts 281°
2026-04-24 04:26 20.62087 -100.18674 6284 ft 0 kts 281°
2026-04-24 04:26 20.62088 -100.18680 6284 ft 1 kts 281°
2026-04-24 04:26 20.62091 -100.18697 6284 ft 3 kts 281°
2026-04-24 04:26 20.62096 -100.18726 6284 ft 5 kts 281°
2026-04-24 04:27 20.62104 -100.18769 6283 ft 6 kts 282°
2026-04-24 04:27 20.62114 -100.18825 6283 ft 8 kts 281°
2026-04-24 04:27 20.62127 -100.18892 6283 ft 10 kts 281°
2026-04-24 04:27 20.62141 -100.18971 6282 ft 11 kts 281°
2026-04-24 04:28 20.62158 -100.19061 6281 ft 12 kts 281°
2026-04-24 04:28 20.62175 -100.19152 6280 ft 12 kts 281°
2026-04-24 04:28 20.62192 -100.19245 6280 ft 12 kts 276°
2026-04-24 04:28 20.62159 -100.19294 6280 ft 8 kts 197°
2026-04-24 04:29 20.62104 -100.19306 6280 ft 7 kts 191°
2026-04-24 04:29 20.62056 -100.19328 6279 ft 7 kts 231°
2026-04-24 04:29 20.62054 -100.19383 6279 ft 7 kts 282°
2026-04-24 04:29 20.62065 -100.19440 6279 ft 8 kts 282°
2026-04-24 04:30 20.62076 -100.19499 6278 ft 8 kts 281°
2026-04-24 04:30 20.62088 -100.19562 6278 ft 8 kts 281°
2026-04-24 04:30 20.62099 -100.19626 6277 ft 8 kts 281°
2026-04-24 04:30 20.62111 -100.19692 6277 ft 9 kts 281°
2026-04-24 04:31 20.62123 -100.19760 6276 ft 9 kts 281°
2026-04-24 04:31 20.62136 -100.19830 6276 ft 9 kts 281°
2026-04-24 04:31 20.62150 -100.19902 6275 ft 9 kts 281°
2026-04-24 04:31 20.62163 -100.19975 6275 ft 10 kts 281°
2026-04-24 04:32 20.62177 -100.20050 6274 ft 10 kts 281°
2026-04-24 04:32 20.62191 -100.20126 6274 ft 10 kts 275°
2026-04-24 04:32 20.62145 -100.20174 6273 ft 10 kts 190°
2026-04-24 04:32 20.62077 -100.20187 6273 ft 9 kts 190°
2026-04-24 04:33 20.62030 -100.20152 6274 ft 10 kts 103°
2026-04-24 04:33 20.61997 -100.19965 6275 ft 52 kts 101°
2026-04-24 04:33 20.61889 -100.19385 6279 ft 104 kts 101°
2026-04-24 04:33 20.61723 -100.18477 6287 ft 146 kts 101°
2026-04-24 04:34 20.61508 -100.17312 6397 ft 167 kts 100°
2026-04-24 04:34 20.61307 -100.16045 6712 ft 176 kts 99°
2026-04-24 04:34 20.61124 -100.14796 7265 ft 171 kts 98°
2026-04-24 04:34 20.60934 -100.13515 7604 ft 181 kts 99°
2026-04-24 04:35 20.60719 -100.12073 7704 ft 208 kts 100°
2026-04-24 04:35 20.60420 -100.10477 7830 ft 232 kts 102°
2026-04-24 04:35 20.60068 -100.08704 8000 ft 254 kts 102°
2026-04-24 04:35 20.59692 -100.06844 8475 ft 262 kts 103°
2026-04-24 04:36 20.59289 -100.04945 9190 ft 261 kts 103°
2026-04-24 04:36 20.58885 -100.03047 9537 ft 276 kts 103°
2026-04-24 04:36 20.58739 -100.00919 9573 ft 301 kts 77°
2026-04-24 04:36 20.59676 -99.98922 9953 ft 307 kts 44°
2026-04-24 04:37 20.61426 -99.97797 10927 ft 282 kts 10°
2026-04-24 04:37 20.62899 -99.97471 13198 ft 196 kts
2026-04-24 04:37 20.64129 -99.97200 13735 ft 193 kts
2026-04-24 04:37 20.65562 -99.97231 13732 ft 214 kts 348°
2026-04-24 04:38 20.67091 -99.97611 13815 ft 236 kts 341°
2026-04-24 04:38 20.68682 -99.98290 13977 ft 252 kts 333°
2026-04-24 04:38 20.70270 -99.99140 14357 ft 261 kts 332°
2026-04-24 04:38 20.71846 -100.00188 14632 ft 273 kts 328°
2026-04-24 04:39 20.73675 -100.00793 15037 ft 280 kts
2026-04-24 04:39 20.75539 -100.00191 15510 ft 288 kts 33°
2026-04-24 04:39 20.77021 -99.98780 16023 ft 290 kts 40°
2026-04-24 04:39 20.78628 -99.97417 16240 ft 302 kts 33°
2026-04-24 04:40 20.80389 -99.96094 16278 ft 319 kts 33°
2026-04-24 04:40 20.82250 -99.94703 16400 ft 334 kts 32°
2026-04-24 04:40 20.84283 -99.93378 16571 ft 344 kts 23°
2026-04-24 04:40 20.86483 -99.92261 16790 ft 354 kts 22°
2026-04-24 04:41 20.88780 -99.91226 17067 ft 361 kts 21°
2026-04-24 04:41 20.90899 -99.90271 18997 ft 309 kts 20°
2026-04-24 04:41 20.92812 -99.89328 19296 ft 320 kts 32°
2026-04-24 04:41 20.94558 -99.87730 19290 ft 339 kts 39°
2026-04-24 04:42 20.96352 -99.85990 19307 ft 355 kts 39°
2026-04-24 04:42 20.98224 -99.84177 19322 ft 369 kts 39°
2026-04-24 04:42 21.00145 -99.82313 19541 ft 375 kts 39°
2026-04-24 04:42 21.02078 -99.80440 19904 ft 378 kts 39°
2026-04-24 04:43 21.04042 -99.78536 20259 ft 381 kts 39°
2026-04-24 04:43 21.05980 -99.76656 20848 ft 377 kts 39°
2026-04-24 04:43 21.07944 -99.74752 21069 ft 384 kts 39°
2026-04-24 04:43 21.09945 -99.72813 21339 ft 390 kts 39°
2026-04-24 04:44 21.11964 -99.70854 21690 ft 393 kts 38°
2026-04-24 04:44 21.13981 -99.68896 22079 ft 394 kts 38°
2026-04-24 04:44 21.16036 -99.66901 22143 ft 396 kts 38°
2026-04-24 04:44 21.18070 -99.64925 22158 ft 395 kts 38°
2026-04-24 04:45 21.20109 -99.62944 22133 ft 394 kts 38°
2026-04-24 04:45 21.22149 -99.60961 22138 ft 394 kts 38°
2026-04-24 04:45 21.24186 -99.58980 22124 ft 394 kts 38°
2026-04-24 04:45 21.26234 -99.56988 22108 ft 395 kts 38°
2026-04-24 04:46 21.28264 -99.55012 22074 ft 394 kts 38°
2026-04-24 04:46 21.30264 -99.53065 22070 ft 394 kts 38°
2026-04-24 04:46 21.32315 -99.51067 22057 ft 393 kts 38°
2026-04-24 04:46 21.34331 -99.49102 22044 ft 394 kts 38°
2026-04-24 04:47 21.36355 -99.47128 22058 ft 393 kts 38°
2026-04-24 04:47 21.38389 -99.45145 22050 ft 394 kts 38°
2026-04-24 04:47 21.40407 -99.43175 22043 ft 394 kts 38°
2026-04-24 04:47 21.42438 -99.41193 22039 ft 393 kts 38°
2026-04-24 04:48 21.44458 -99.39214 22046 ft 393 kts 38°
2026-04-24 04:48 21.46501 -99.37214 22045 ft 394 kts 38°
2026-04-24 04:48 21.48506 -99.35249 22055 ft 393 kts 38°
2026-04-24 04:48 21.50548 -99.33248 22069 ft 394 kts 39°
2026-04-24 04:49 21.52556 -99.31280 22063 ft 394 kts 39°
2026-04-24 04:49 21.54600 -99.29274 22029 ft 393 kts 39°
2026-04-24 04:49 21.56630 -99.27283 22020 ft 394 kts 39°
2026-04-24 04:49 21.58641 -99.25312 22013 ft 393 kts 38°
2026-04-24 04:50 21.60667 -99.23326 22009 ft 393 kts 39°
2026-04-24 04:50 21.62680 -99.21353 21974 ft 393 kts 39°
2026-04-24 04:50 21.64701 -99.19370 21950 ft 392 kts 39°
2026-04-24 04:50 21.66718 -99.17391 21934 ft 393 kts 39°
2026-04-24 04:51 21.68727 -99.15418 21919 ft 393 kts 39°
2026-04-24 04:51 21.70757 -99.13425 21904 ft 393 kts 39°
2026-04-24 04:51 21.72775 -99.11443 21895 ft 393 kts 39°
2026-04-24 04:51 21.74806 -99.09445 21862 ft 393 kts 39°
2026-04-24 04:52 21.76806 -99.07479 21870 ft 393 kts 39°
2026-04-24 04:52 21.78830 -99.05488 21868 ft 392 kts 38°
2026-04-24 04:52 21.80863 -99.03487 21870 ft 393 kts 39°
2026-04-24 04:52 21.82860 -99.01520 21864 ft 393 kts 38°
2026-04-24 04:53 21.84890 -98.99522 21859 ft 393 kts 38°
2026-04-24 04:53 21.86910 -98.97531 21856 ft 393 kts 38°
2026-04-24 04:53 21.88938 -98.95532 21843 ft 394 kts 39°
2026-04-24 04:53 21.90949 -98.93550 21836 ft 392 kts 38°
2026-04-24 04:54 21.92964 -98.91562 21835 ft 393 kts 39°
2026-04-24 04:54 21.94975 -98.89578 21835 ft 393 kts 38°
2026-04-24 04:54 21.96994 -98.87584 21832 ft 392 kts 39°
2026-04-24 04:54 21.99013 -98.85590 21831 ft 392 kts 39°
2026-04-24 04:55 22.01013 -98.83614 21830 ft 393 kts 39°
2026-04-24 04:55 22.02989 -98.81582 21820 ft 395 kts 46°
2026-04-24 04:55 22.04339 -98.78968 21856 ft 406 kts 68°
2026-04-24 04:55 22.05144 -98.76031 21841 ft 407 kts 70°
2026-04-24 04:56 22.05922 -98.73117 21830 ft 408 kts 70°
2026-04-24 04:56 22.06705 -98.70187 21453 ft 410 kts 70°
2026-04-24 04:56 22.07495 -98.67234 20986 ft 405 kts 70°
2026-04-24 04:56 22.08269 -98.64340 20526 ft 400 kts 70°
2026-04-24 04:57 22.09026 -98.61506 20065 ft 393 kts 70°
2026-04-24 04:57 22.09773 -98.58710 19590 ft 383 kts 71°
2026-04-24 04:57 22.10481 -98.56062 19141 ft 375 kts 70°
2026-04-24 04:57 22.11201 -98.53365 18686 ft 371 kts 71°
2026-04-24 04:58 22.11913 -98.50700 18240 ft 370 kts 71°
2026-04-24 04:58 22.12615 -98.48071 17797 ft 368 kts 71°
2026-04-24 04:58 22.13312 -98.45452 17337 ft 360 kts 71°
2026-04-24 04:58 22.13993 -98.42896 16861 ft 350 kts 71°
2026-04-24 04:59 22.14644 -98.40444 16148 ft 336 kts 71°
2026-04-24 04:59 22.15275 -98.38073 15448 ft 324 kts 71°
2026-04-24 04:59 22.15884 -98.35783 14746 ft 315 kts 72°
2026-04-24 04:59 22.16479 -98.33548 14045 ft 308 kts 72°
2026-04-24 05:00 22.17060 -98.31362 13351 ft 303 kts 72°
2026-04-24 05:00 22.17635 -98.29195 12651 ft 301 kts 72°
2026-04-24 05:00 22.18212 -98.27026 11990 ft 302 kts 73°
2026-04-24 05:00 22.18788 -98.24854 11297 ft 302 kts 73°
2026-04-24 05:01 22.19360 -98.22697 10609 ft 301 kts 73°
2026-04-24 05:01 22.19938 -98.20519 9913 ft 300 kts 73°
2026-04-24 05:01 22.20501 -98.18394 9325 ft 294 kts 73°
2026-04-24 05:01 22.21057 -98.16293 8855 ft 285 kts 73°
2026-04-24 05:02 22.21587 -98.14288 8352 ft 273 kts 73°
2026-04-24 05:02 22.22092 -98.12380 7885 ft 261 kts 73°
2026-04-24 05:02 22.22579 -98.10539 7504 ft 247 kts 73°
2026-04-24 05:02 22.23035 -98.08814 7132 ft 239 kts 73°
2026-04-24 05:03 22.23798 -98.07253 6850 ft 237 kts 41°
2026-04-24 05:03 22.25230 -98.06456 6614 ft 230 kts 19°
2026-04-24 05:03 22.26746 -98.05933 6271 ft 226 kts 19°
2026-04-24 05:03 22.28236 -98.05416 5921 ft 222 kts 19°
2026-04-24 05:04 22.29698 -98.04909 5528 ft 220 kts 19°
2026-04-24 05:04 22.31128 -98.04414 5252 ft 209 kts 19°
2026-04-24 05:04 22.32481 -98.03946 4893 ft 202 kts 20°
2026-04-24 05:04 22.33820 -98.03481 4524 ft 196 kts 20°
2026-04-24 05:05 22.35072 -98.03012 4247 ft 186 kts 28°
2026-04-24 05:05 22.36157 -98.02319 3979 ft 177 kts 35°
2026-04-24 05:05 22.37193 -98.01619 3704 ft 171 kts 36°
2026-04-24 05:05 22.38189 -98.00946 3430 ft 167 kts 36°
2026-04-24 05:06 22.39158 -98.00292 3171 ft 161 kts 37°
2026-04-24 05:06 22.39979 -97.99567 2937 ft 145 kts 65°
2026-04-24 05:06 22.40158 -97.98576 2766 ft 133 kts 100°
2026-04-24 05:06 22.40061 -97.97591 2600 ft 132 kts 101°
2026-04-24 05:07 22.39963 -97.96599 2422 ft 130 kts 101°
2026-04-24 05:07 22.39864 -97.95631 2255 ft 130 kts 100°
2026-04-24 05:07 22.39596 -97.94737 2074 ft 126 kts 132°
2026-04-24 05:07 22.38909 -97.94137 1928 ft 125 kts 141°
2026-04-24 05:08 22.38233 -97.93562 1773 ft 124 kts 140°
2026-04-24 05:08 22.37545 -97.92973 1606 ft 125 kts 141°
2026-04-24 05:08 22.36853 -97.92400 1449 ft 125 kts 143°
2026-04-24 05:08 22.36139 -97.91869 1327 ft 124 kts 143°
2026-04-24 05:09 22.35417 -97.91330 1242 ft 125 kts 143°
2026-04-24 05:09 22.34704 -97.90792 1131 ft 126 kts 143°
2026-04-24 05:09 22.33979 -97.90247 977 ft 127 kts 143°
2026-04-24 05:09 22.33258 -97.89704 820 ft 126 kts 143°
2026-04-24 05:10 22.32528 -97.89155 656 ft 126 kts 143°
2026-04-24 05:10 22.32155 -97.88874 576 ft 126 kts 143°
2026-04-24 05:10 22.32113 -97.88843 567 ft 126 kts 143°
2026-04-24 05:11 22.31391 -97.88305 408 ft 127 kts 144°
2026-04-24 05:11 22.30662 -97.87754 258 ft 128 kts 144°
2026-04-24 05:11 22.29942 -97.87213 95 ft 118 kts 142°
2026-04-24 05:11 22.29338 -97.86753 84 ft 88 kts 146°
2026-04-24 05:12 22.29030 -97.86525 82 ft 32 kts 145°
2026-04-24 05:12 22.28962 -97.86449 81 ft 7 kts 37°
2026-04-24 05:12 22.29000 -97.86488 81 ft 9 kts 293°
2026-04-24 05:12 22.29045 -97.86540 82 ft 9 kts 324°
2026-04-24 05:13 22.29135 -97.86634 83 ft 8 kts 253°
2026-04-24 05:13 22.29102 -97.86687 84 ft 7 kts 234°
2026-04-24 05:13 22.29075 -97.86728 85 ft 5 kts 235°
2026-04-24 05:14 22.29059 -97.86753 86 ft 2 kts 234°
2026-04-24 05:14 22.29051 -97.86764 87 ft 1 kts 235°
2026-04-24 05:14 22.29044 -97.86776 87 ft 2 kts 236°
2026-04-24 05:14 22.29034 -97.86794 88 ft 3 kts 236°
2026-04-24 05:15 22.29016 -97.86822 88 ft 5 kts 236°
2026-04-24 05:15 22.28990 -97.86861 89 ft 6 kts 234°
2026-04-24 05:15 22.28962 -97.86893 90 ft 5 kts 219°
2026-04-24 05:15 22.28951 -97.86903 90 ft 0 kts 221°